Fort Collins, CO

12:46 PM MST on February 23, 2017 (GMT -0700)
Fort Collins-Loveland Municipal

Weather History for KFNL - February, 2013

Change the Weather History Date:

Monday, February 18, 2013

  Actual Average Record
Temperature  
Mean Temperature 30 °F -  
Max Temperature 42 °F - 72 °F (2016)
Min Temperature 17 °F - -13 °F (2006)
Degree Days  
Heating Degree Days 36    
Month to date heating degree days  
Cooling Degree Days 0    
Month to date cooling degree days  
Moisture  
Dew Point 10 °F    
Average Humidity 43    
Maximum Humidity 73    
Minimum Humidity 19    
Precipitation  
Precipitation 0.00 in - 0.03 in (1997)
Sea Level Pressure  
Sea Level Pressure 29.95 in    
Wind  
Wind Speed 14 mph (North)    
Max Wind Speed 25 mph    
Max Gust Speed 29 mph    
Visibility 10 miles    
Events      
T = Trace of Precipitation, MM = Missing Value Source: NWS Daily Summary

Daily Weather History Graph

Daily Weather History Graph

Search for Another Location

Airport or City:

Trip Planner

Search our weather history database for the weather conditions in past years. The results will help you decide how hot, cold, wet, or windy it might be!

Date:

Astronomy

Feb. 18, 2013 Rise Set
Actual Time 6:49 AM MST 5:39 PM MST
Civil Twilight 6:21 AM MST 6:07 PM MST
Nautical Twilight 5:49 AM MST 6:38 PM MST
Astronomical Twilight 5:18 AM MST 7:10 PM MST
Moon 11:26 AM MST (2/18) 1:31 AM MST (2/18)
Length of Visible Light 11h 45m
Length of Day
10h 50m
First Quarter, 59% of the Moon is Illuminated
Feb 18
First Quarter
Feb 25
Full
Mar 4
Last Quarter
Mar 11
New
Mar 19
First Quarter

Hourly Weather History & Observations

Time (MST) Temp. Windchill Dew Point Humidity Pressure Visibility Wind Dir Wind Speed Gust Speed Precip Events Conditions
12:35 AM 30.2 °F 19.3 °F 17.6 °F 60% 29.78 in 10.0 mi North 15.0 mph 25.3 mph N/A   Overcast
12:55 AM 30.2 °F 16.2 °F 19.4 °F 64% 29.79 in 10.0 mi North 25.3 mph - N/A   Overcast
1:15 AM 30.2 °F 17.8 °F 17.6 °F 60% 29.80 in 10.0 mi North 19.6 mph 28.8 mph N/A   Overcast
1:35 AM 32.0 °F 20.5 °F 15.8 °F 51% 29.81 in 10.0 mi North 18.4 mph - N/A   Overcast
1:55 AM 32.0 °F 20.5 °F 15.8 °F 51% 29.82 in 10.0 mi North 18.4 mph 23.0 mph N/A   Overcast
2:15 AM 30.2 °F 18.1 °F 17.6 °F 60% 29.82 in 10.0 mi NNE 18.4 mph - N/A   Overcast
2:35 AM 30.2 °F 19.8 °F 17.6 °F 60% 29.83 in 10.0 mi North 13.8 mph - N/A   Overcast
2:55 AM 30.2 °F 17.4 °F 17.6 °F 60% 29.84 in 10.0 mi NNW 20.7 mph 25.3 mph N/A   Overcast
3:15 AM 33.8 °F 23.9 °F 10.4 °F 38% 29.85 in 10.0 mi NNW 15.0 mph - N/A   Overcast
3:35 AM 32.0 °F 22.5 °F 12.2 °F 44% 29.85 in 10.0 mi NNW 12.7 mph - N/A   Mostly Cloudy
3:55 AM 30.2 °F 19.3 °F 12.2 °F 47% 29.85 in 10.0 mi NNW 15.0 mph - N/A   Mostly Cloudy
4:35 AM 30.2 °F 18.9 °F 12.2 °F 47% 29.88 in 10.0 mi North 16.1 mph 20.7 mph N/A   Mostly Cloudy
5:15 AM 28.4 °F 19.1 °F 12.2 °F 51% 29.89 in 10.0 mi NNW 10.4 mph - N/A   Clear
5:35 AM 26.6 °F 16.8 °F 12.2 °F 55% 29.90 in 10.0 mi North 10.4 mph - N/A   Clear
5:55 AM 26.6 °F 14.7 °F 12.2 °F 55% 29.91 in 10.0 mi North 15.0 mph - N/A   Clear
6:15 AM 26.6 °F 14.7 °F 14.0 °F 59% 29.91 in 10.0 mi North 15.0 mph - N/A   Clear
6:35 AM 26.6 °F 16.2 °F 12.2 °F 55% 29.92 in 10.0 mi North 11.5 mph - N/A   Clear
6:55 AM 23.0 °F 13.1 °F 10.4 °F 59% 29.93 in 10.0 mi North 9.2 mph - N/A   Clear
7:15 AM 24.8 °F 16.9 °F 12.2 °F 59% 29.95 in 10.0 mi North 6.9 mph - N/A   Clear
7:35 AM 23.0 °F 15.8 °F 12.2 °F 63% 29.95 in 10.0 mi NNW 5.8 mph - N/A   Clear
7:55 AM 26.6 °F 22.6 °F 14.0 °F 59% 29.96 in 10.0 mi NW 3.5 mph - N/A   Clear
8:15 AM 28.4 °F 19.7 °F 15.8 °F 59% 29.97 in 10.0 mi North 9.2 mph - N/A   Clear
8:35 AM 32.0 °F 23.6 °F 10.4 °F 41% 29.97 in 10.0 mi NNW 10.4 mph - N/A   Clear
8:55 AM 33.8 °F 26.4 °F 10.4 °F 38% 29.98 in 10.0 mi North 9.2 mph - N/A   Clear
9:15 AM 33.8 °F 28.6 °F 10.4 °F 38% 29.98 in 10.0 mi NNE 5.8 mph - N/A   Clear
9:55 AM 35.6 °F 30.7 °F 10.4 °F 35% 29.98 in 10.0 mi East 5.8 mph - N/A   Clear
10:15 AM 37.4 °F 31.4 °F 8.6 °F 30% 29.97 in 10.0 mi NE 8.1 mph - N/A   Scattered Clouds
10:35 AM 37.4 °F 30.8 °F 6.8 °F 28% 29.97 in 10.0 mi North 9.2 mph - N/A   Mostly Cloudy
10:55 AM 35.6 °F 29.9 °F 10.4 °F 35% 29.97 in 10.0 mi South 6.9 mph - N/A   Mostly Cloudy
11:15 AM 39.2 °F 31.6 °F 10.4 °F 31% 29.97 in 10.0 mi South 12.7 mph 17.3 mph N/A   Scattered Clouds
11:35 AM 39.2 °F 34.2 °F 8.6 °F 28% 29.97 in 10.0 mi SSW 6.9 mph - N/A   Clear
11:55 AM 39.2 °F 34.2 °F 8.6 °F 28% 29.96 in 10.0 mi WSW 6.9 mph - N/A   Mostly Cloudy
12:15 PM 39.2 °F 34.2 °F 8.6 °F 28% 29.96 in 10.0 mi SSW 6.9 mph - N/A   Overcast
12:35 PM 39.2 °F 34.2 °F 8.6 °F 28% 29.96 in 10.0 mi NW 6.9 mph - N/A   Overcast
12:55 PM 37.4 °F 31.4 °F 8.6 °F 30% 29.96 in 10.0 mi West 8.1 mph - N/A   Overcast
1:15 PM 37.4 °F 27.8 °F 3.2 °F 24% 29.95 in 10.0 mi NW 17.3 mph 26.5 mph N/A   Mostly Cloudy
1:55 PM 41.0 °F 32.2 °F 6.8 °F 24% 29.95 in 10.0 mi NW 18.4 mph 24.2 mph N/A   Clear
2:15 PM 41.0 °F 32.8 °F 5.0 °F 23% 29.95 in 10.0 mi NNW 16.1 mph 21.9 mph N/A   Clear
2:35 PM 41.0 °F 31.9 °F 5.0 °F 23% 29.96 in 10.0 mi NW 19.6 mph - N/A   Clear
2:55 PM 41.0 °F 31.6 °F 6.8 °F 24% 29.96 in 10.0 mi NW 20.7 mph 24.2 mph N/A   Clear
3:15 PM 42.8 °F 34.3 °F 3.2 °F 19% 29.96 in 10.0 mi NW 19.6 mph 25.3 mph N/A   Clear
3:35 PM 41.0 °F 33.1 °F 5.0 °F 23% 29.97 in 10.0 mi NW 15.0 mph 20.7 mph N/A   Clear
4:15 PM 39.2 °F 30.8 °F 5.0 °F 24% 29.97 in 10.0 mi North 15.0 mph - N/A   Clear
4:35 PM 39.2 °F 29.8 °F 3.2 °F 22% 29.97 in 10.0 mi North 18.4 mph - N/A   Clear
4:55 PM 37.4 °F 28.9 °F 3.2 °F 24% 29.98 in 10.0 mi North 13.8 mph - N/A   Clear
5:15 PM 35.6 °F 25.5 °F 3.2 °F 26% 29.98 in 10.0 mi North 17.3 mph - N/A   Clear
5:35 PM 33.8 °F 24.8 °F 5.0 °F 30% 29.98 in 10.0 mi NNE 12.7 mph - N/A   Clear
5:55 PM 33.8 °F 26.4 °F 5.0 °F 30% 29.99 in 10.0 mi NE 9.2 mph - N/A   Clear
6:15 PM 30.2 °F 22.6 °F 3.2 °F 32% 30.00 in 10.0 mi NE 8.1 mph - N/A   Clear
6:35 PM 32.0 °F 23.6 °F 5.0 °F 32% 30.00 in 10.0 mi NNE 10.4 mph - N/A   Clear
6:55 PM 30.2 °F 22.6 °F 3.2 °F 32% 30.01 in 10.0 mi NE 8.1 mph - N/A   Clear
7:15 PM 26.6 °F 15.2 °F 6.8 °F 43% 30.01 in 10.0 mi NE 13.8 mph - N/A   Clear
7:35 PM 26.6 °F 19.1 °F 10.4 °F 51% 30.02 in 10.0 mi ENE 6.9 mph - N/A   Clear
8:15 PM 24.8 °F 20.5 °F 8.6 °F 50% 30.03 in 10.0 mi ENE 3.5 mph - N/A   Clear
8:35 PM 23.0 °F 14.7 °F 8.6 °F 54% 30.04 in 10.0 mi SSW 6.9 mph - N/A   Clear
8:55 PM 19.4 °F 9.5 °F 6.8 °F 58% 30.04 in 10.0 mi South 8.1 mph - N/A   Clear
9:15 PM 17.6 °F 8.2 °F 6.8 °F 63% 30.06 in 10.0 mi South 6.9 mph - N/A   Clear
9:35 PM 17.6 °F 7.3 °F 6.8 °F 63% 30.07 in 10.0 mi South 8.1 mph - N/A   Clear
9:55 PM 17.6 °F 6.4 °F 10.4 °F 73% 30.07 in 10.0 mi South 9.2 mph - N/A   Clear
10:15 PM 17.6 °F 7.3 °F 8.6 °F 68% 30.07 in 10.0 mi SSE 8.1 mph - N/A   Clear
11:15 PM 17.6 °F 7.3 °F 6.8 °F 63% 30.08 in 10.0 mi SSE 8.1 mph - N/A   Clear